Regional Weather Roundup
Issued by NWS

Home | Current Version | Previous Version | Graphics & Text | Print | Product List | Glossary On
Versions: 1 2 3 4 5 6 7 8 9 10 11 12 13 14 15 16 17 18 19 20 21 22 23 24 25 26 27 28 29 30 31 32 33 34 35 36 37 38 39 40 41 42 43 44 45 46 47 48 49 50
493
ASUS43 KBIS 101710
RWRND

NORTH DAKOTA REGIONAL WEATHER ROUNDUP
NATIONAL WEATHER SERVICE BISMARCK ND
1100 AM CST SAT DEC 10 2016

NOTE: "FAIR" INDICATES FEW OR NO CLOUDS BELOW 12,000 FEET WITH NO
SIGNIFICANT WEATHER AND/OR OBSTRUCTIONS TO VISIBILITY.


NDZ001>003-009>011-017-101800-
NORTHWEST NORTH DAKOTA

CITY           SKY/WX    TMP DP  RH WIND       PRES   REMARKS
WILLISTON      LGT SNOW  -2  -9  72 E13       30.17S WCI -20
MINOT          CLOUDY   -15 -19  82 SE3       30.27F
MINOT AFB      CLOUDY   -17 -22  75 SE2       30.27F
$$

NDZ018>021-031>035-040>046-101800-
SOUTHWEST NORTH DAKOTA

CITY           SKY/WX    TMP DP  RH WIND       PRES   REMARKS
BISMARCK       CLOUDY   -14 -17  87 NE7       30.30F WCI -30
DICKINSON      CLOUDY    -3  -8  79 E14       30.05F WCI -22
GARRISON         N/A     -9 -13  83 SE9       30.23F WCI -26
HETTINGER ARPT CLOUDY    -3  -7  82 SE14      30.05F WCI -22
$$

NDZ004>008-012>016-024-026-027-054-101800-
NORTHEAST NORTH DAKOTA

CITY           SKY/WX    TMP DP  RH WIND       PRES   REMARKS
GRAND FORKS    CLOUDY    -4 -10  75 E5        30.45F WCI -15
GRND FRKS AFB  CLOUDY    -6 -11  77 E5        30.44F WCI -17
DEVILS LAKE    CLOUDY    -8 -11  84 SE5       30.35F WCI -19
$$

NDZ022-023-025-028>030-036>039-047>053-101800-
SOUTHEAST NORTH DAKOTA

CITY           SKY/WX    TMP DP  RH WIND       PRES   REMARKS
FARGO          CLOUDY    -1  -8  72 E3        30.45R
JAMESTOWN      CLOUDY    -7 -11  83 SE7       30.33F WCI -21
$$





USA.gov is the U.S. government's official web portal to all federal, state and local government web resources and services.